Location: Baia Mare
(47.6567°N, 23.5850°E)
Time: 16:39:25
(UTC+03:00)

ISS - Pass Details

Date: 16 May 2018
Orbit: 402 x 407 km, 51.6° (Epoch: 27 May)

Event Time Altitude Azimuth Distance (km) Brightness Sun altitude
Exits shadow 01:24:05 13° 72° (ENE) 1,291 -1.1 -23.3°
Drops below altitude 10° 01:24:30 10° 70° (ENE) 1,458 -0.8 -23.3°
Sets 01:26:36 0° 67° (ENE) 2,320 0.3 -23.3°
